AUREOLE 2

Satellite information

Favourite Embed

Satellite Type and Status

PAYLOADIN ORBIT

Key statistics

Satellite AUREOLE 2 at a glance.

Uptime

18980

Days in orbit

Revolutions

≈ 15.5

Per day

Orbit

LEO

Low Earth Orbit

Inclination

73.9

Latest

Satellite identification and parameters

Extended collection of information and parameters for AUREOLE 2.

Object identification

Identified? True

Debris? False

Object name: AUREOLE 2

International designator: 1973-107A

Object number (NORAD): 7003

Object ID (CCSDS): 7003

Country: FRANCE (FR)

Current information (Y/N): Y

RCS size: LARGE

Orbital parameters

Period: 93.019 minutes

Inclination: 73.8997 deg

SMA: 6800.519 km

Apoapsis: 527.163 km

Periapsis: 317.604 km

RAAN: 236.1053 deg

Eccentricy: 0.01540758

Argument of periapsis: 221.5726 deg

Mean anomaly: 137.3691 deg

Mean motion: 15.48066796 rev/day

Mean motion (dot): 0.00052273 rev/day2

B* drag term: 0.00061352131 1/REarth

Two-line elements (TLE)

Creation date: Dec. 12, 2025, 10:14 a.m.

Reference frame: TEME

Reference center: EARTH

Epoch: Dec. 12, 2025, 6:11 a.m. UTC

TLE line 0: 0 AUREOLE 2

TLE line 1: 1 07003U 73107A 25346.25829918 .00052273 00000-0 61352-3 0 9991

TLE line 2: 2 07003 73.8997 236.1053 0154076 221.5726 137.3691 15.48066796675339

Live tracking on map

Real-time ground track for satellite AUREOLE 2.

In-orbit conjunctions

A list of the most updated potential collisions computed for object AUREOLE 2.

Target Orbit TCA Probability of collision Miss distance Type
CZ-4B DEB SSO 2025-06-29 20:54:38 0.0001020855 572.0 (m) DEBRIS
COSMOS 2251 DEB LEO 2025-01-22 01:30:19 0.00025113 504.0 (m) DEBRIS
SINAH 1 SSO 2024-11-18 01:31:39 0.0001416007 279.0 (m) PAYLOAD
EGYPTSAT 1 SSO 2024-10-29 08:32:05 0.0001555244 460.0 (m) PAYLOAD
SL-16 DEB LEO 2024-10-16 23:26:39 0.0001419315 734.0 (m) DEBRIS

Associated space launch

Joint Soviet-French scientific satellite dedicated to the Earth's upper atmosphere at high latitudes.

AUREOLE 2 was lifted into orbit during the mission ‘Kosmos-3M | Aureole 2’, on board a Kosmos-3M space rocket.

The launch took place on Dec. 26, 1973, 4:30 p.m. from 132/2.

For more information about the launch, click the button.

Launch to space Kosmos-3M | Aureole 2
Kosmos-3M | Aureole 2

Agency: N/A

Status: Launch Successful

Launch date: Dec. 26, 1973, 4:30 p.m. UTC

Rocket: Kosmos-3M

Launch pad: 132/2

Location: Plesetsk Cosmodrome, Russian Federation

...

Latest news about this satellite

There are no fresh news available about this satellite. Check back as we update our databases every day.


Newsletter sign-up

Weekly statistics, charts and insights to help you stay on top of the space industry.